Погода в Волчковцах

Украина / Ивано-Франковская область     48°28′22″N   25°23′43″E
темп.,
°C
ветер,
м/с
пор.,
м/с
влажн.,
%
обл.,
%
осадки,
мм/ч
давл.,
гПа
погр.,
м
14 апреля, ср
ср1400:00+5сз5880100 0.0 1017379
03:00+5сз4582100 0.0 1015343
06:00+5сз3481100 0.0 1015307
09:00+5сз4485100 0.0 1015414
12:00+3зсз5691100 0.0 1015395
15:00+3сз6891100 0.0 1016450
18:00+2сз71092100 0.0 1016496
21:00+2сз51095100 0.0 1017516
15 апреля, чт
чт1500:00+1зсз61097100 0.6 1016439
03:00+1сз61196100 0.8 1016491
06:00+1зсз61197100 0.9 1016450
09:00+1зсз61197100 2.1 1017437
12:00+2сз61297100 0.6 1018431
15:00+3сз61093100 0.7 1017586
18:00+3сз61188100 0.0 1017646
21:00+2сз51291100 0.1 1018657
16 апреля, пт
пт1600:00+2сз61390100 0.0 1018615
03:00+2сз61288100 0.0 1017590
06:00+1сз5128799 0.0 1017548
09:00+3сз71178100 0.0 1017657
12:00+8сз696264 0.0 10171265
15:00+8сз6861100 0.0 10171236
18:00+8сз686896 0.0 10181013
21:00+4ссз478960 0.0 1019286
17 апреля, сб
сб1700:00+3сз349495 0.0 1020179
03:00+3зсз2385100 0.0 1020450
06:00+3юз118276 0.0 1021182
09:00+5ююв23758 0.0 1021485
12:00+9вюв446118 0.0 10201112
15:00+11вюв4556100 0.0 10191540
18:00+10вюв566013 0.0 1019829
21:00+6в347894 0.0 102070
18 апреля, вс
вс1800:00+7вюв2574100 0.0 1020148
03:00+7вюв2576100 0.0 1020160
06:00+6в2577100 0.0 1019166
09:00+7вюв3576100 0.0 1020398
12:00+12вюв5759100 0.0 10191488
15:00+13вюв674887 0.1 10181878
18:00+12ююв575899 0.0 10181525
21:00+9ю3770100 0.1 1019320